DMSP 5D-2 F11 DEB, 29070

Orbit data source: Space-Track

DMSP 5D-2 F11 DEB, 29070 is space debris in SSO originally from a launch on Thu, 28 Nov 1991 UTC launched from the Air Force Western Test Range (AFWTR). Debris objects in space refer to the collection of defunct objects orbiting the Earth. Examples of debris include non-operational satellites, rocket bodies, and fragments generated from explosions, collisions, or faulty payload assembly.

Loading next visibility...
Identifier
29070, 1991-082BR
Orbit
SSO
Country
Flag of USUS
Related business
Manufacturer
Unknown
Mission
Spacecraft
Bus & Motor
Unknown
Mass
Unknown
Launch date (UTC)
1991-11-28 (35 years ago)
Launch vehicle
Unknown
Launch site
Air Force Western Test Range (AFWTR)
Object type
Payload
Rocket body
Debris
Shape & HBR
Unknown shape, 0.1 m
Radar Cross Section
Small (<0.1 m²)

Expand to show TLE details & history
Last TLE update: 1 day ago

TLE from 1 day ago
0 DMSP 5D-2 F11 DEB
1 29070U 91082BR  26207.82669018  .00048462  00000-0  38551-2 0  9993
2 29070  98.5911 340.7199 0008688 218.1689 141.8918 15.00194563138919
Epoch: 2026-07-26T19:50Z
TLE epoch observation values (Epoch: 2026-07-26T19:50:26.031Z)
Latitude
0.00003°
Longitude
98.59239°
Altitude
574.073 km
Speed
7.571 km/s
True Right ascension
22h 42m 52s
True Declination
0° 00' 00"
Sunlit
Object was in full shadow at epoch
Visualization orbit readout
Latitude
Unknown
Longitude
Unknown
Altitude
Unknown
Speed
Unknown
Apparent Right ascension
Unknown
Apparent Declination
Unknown
Sunlit
N/A
Visualization observer readout
Local Sidereal Time
15:14:15
Azimuth
Unknown
Elevation
Unknown
Doppler factor
Unknown
Orbital elements
Apogee altitude
569.373 km
Perigee altitude
557.312 km
Semi-major axis
6,941.479 km
Eccentricity
0.00087
Inclination
98.5911°
RAAN
340.7199°
Arg. of periapsis
218.1689°
True anomaly
141.95319°
Mean anomaly
141.8918°
Eccentric anomaly
141.9225°
Mean motion
3.75288 °/min
Orbital period
95.93 mins
BSTAR
0.0038551
Loading maneuver chart data...
Computing Atmospheric mass density...

Documentation

Showing up to 5 results
|